Temp
70 69 66 67 65 66 64 64 64 67 71 72 73 71 72 73 74 73 72 62 65 70 74 74 74 73 73 72 72 71 71 71 69 69 68 69 69 69 69 69 69 69 69
69 70 69 66 65 65 65 65 64 64 67 71 72 71 70 72 72 73 75 69 64 66 70 73 74 74 74 73 73 72 72 71 70 69 69 68 68 68 69 69 69 69 66
69 70 70 68 68 67 67 67 66 65 64 66 69 71 70 70 69 71 72 73 69 61 65 69 71 72 72 73 72 72 72 71 71 70 69 69 69 69 65 66 67 64 64
67 67 68 69 69 68 67 66 65 64 64 64 64 65 67 68 69 70 71 70 71 69 65 64 68 70 71 71 72 73 71 69 68 67 66 65 64 64 63 63 63 63 63
66 66 66 68 68 69 67 65 64 65 63 62 62 61 56 54 56 58 58 58 58 59 58 59 59 62 68 68 67 69 69 68 66 65 64 63 62 62 62 61 61 61 61
65 67 66 67 68 67 64 63 64 65 64 63 58 51 49 49 49 49 49 50 49 48 48 48 51 54 63 66 66 66 64 63 63 62 61 61 61 60 60 60 60 60 60
64 65 67 66 68 66 65 64 62 62 61 56 50 47 45 45 44 45 44 44 43 43 42 42 42 46 49 61 62 62 62 61 60 60 59 59 58 57 57 57 57 57 57
64 64 65 65 66 66 66 64 63 61 61 57 54 52 45 44 41 40 41 40 38 40 38 38 38 38 40 45 52 56 57 58 58 56 55 54 54 54 54 54 54 55 55
60 59 60 61 65 66 64 65 64 63 59 58 60 56 49 49 39 39 36 37 36 36 36 36 35 35 35 36 38 43 47 50 51 51 50 50 51 51 52 52 52 52 53
54 52 53 55 58 63 65 64 64 63 61 58 58 60 57 49 43 35 35 33 34 33 32 32 32 32 32 32 35 39 41 42 43 43 44 45 46 48 49 49 50 51 52
48 46 46 48 50 55 62 64 63 62 61 60 59 57 52 51 48 41 32 30 30 30 30 31 31 30 30 29 30 34 37 39 39 40 41 42 43 45 46 47 48 49 50
43 41 42 42 43 43 43 44 48 52 50 54 55 53 51 49 47 42 36 32 29 26 27 29 28 28 28 28 28 31 34 35 36 37 37 39 41 43 44 45 46 47 48
37 36 37 37 37 38 38 40 38 38 39 39 40 38 38 38 44 43 40 31 29 26 26 26 27 27 28 27 26 30 30 31 33 36 38 38 40 41 41 43 44 45 45
33 33 33 33 34 35 34 35 34 33 35 36 33 33 32 31 34 37 39 35 29 29 27 24 26 26 27 27 28 30 31 32 33 35 36 37 38 39 40 41 42 43 43
31 30 30 29 30 30 30 30 30 30 30 29 28 28 28 28 30 32 36 36 35 28 25 23 23 26 26 27 28 30 31 31 32 33 34 35 36 37 38 39 40 41 42
29 29 28 28 27 28 28 28 26 26 26 26 27 27 26 27 28 29 29 31 33 33 26 26 24 25 28 31 30 30 31 30 32 33 33 33 34 35 37 37 38 39 40
27 27 27 27 27 27 27 26 25 26 26 25 26 25 25 26 26 26 27 27 27 30 24 23 26 28 29 29 30 30 30 29 30 31 32 33 33 34 35 36 36 37 37
26 26 26 26 26 26 26 25 23 24 23 23 23 24 23 26 25 27 25 24 25 27 29 25 27 28 28 29 28 27 28 29 28 30 31 32 32 33 34 34 35 35 35
24 25 25 24 24 24 24 24 24 23 23 22 23 23 22 23 22 23 25 26 28 29 29 28 25 27 27 27 25 26 27 27 28 30 30 31 31 32 32 33 33 34 34
23 23 24 24 24 24 24 24 24 24 24 24 24 23 23 23 23 23 23 23 26 26 26 25 24 24 24 25 24 22 20 23 23 27 28 29 30 31 32 32 32 31 32
25 25 25 25 25 24 24 23 23 23 22 22 23 23 24 25 28 28 26 25 26 25 25 24 23 23 22 21 19 20 18 19 21 23 24 25 25 24 24 27 29 30 31
25 26 25 25 25 26 28 27 25 23 24 23 22 22 24 25 27 27 27 27 26 24 23 22 21 20 20 19 20 18 17 15 14 24 20 18 22 19 21 22 28 30 31
25 24 24 25 24 25 28 28 27 25 24 25 25 26 25 26 25 25 26 26 25 25 23 22 20 20 18 20 19 17 17 16 16 20 18 13 20 17 21 24 30 30 30
24 25 24 24 25 27 29 28 27 25 24 24 25 25 25 26 26 24 25 24 23 23 23 23 21 21 21 23 21 20 18 16 16 18 19 10 18 17 21 22 28 28 29
24 25 26 26 26 26 28 28 27 26 24 23 24 23 25 25 26 27 24 22 21 22 25 25 24 25 25 25 24 18 11 10 9 13 18 13 15 15 16 18 21 28 29
25 26 26 26 26 26 28 28 28 26 23 23 23 23 23 24 26 26 24 21 16 19 20 18 18 18 19 18 20 16 12 6 7 6 16 11 13 13 7 15 17 18 18
MSLP
1009.16 1009.22 1009.17 1009.40 1009.51 1010.28 1010.40 1011.02 1011.50 1012.21 1012.36 1012.52 1012.63 1012.96 1013.47 1013.82 1014.22 1014.61 1014.82 1015.35 1016.04 1016.45 1016.45 1016.75 1017.17 1017.48 1017.83 1018.10 1018.34 1018.56 1018.86 1019.14 1019.59 1019.82 1020.28 1020.46 1020.73 1020.76 1020.93 1021.25 1021.42 1021.59 1021.74
1009.05 1009.17 1009.28 1009.49 1009.38 1010.10 1010.56 1011.03 1011.12 1012.01 1012.63 1012.39 1012.49 1012.78 1013.38 1013.66 1014.17 1014.49 1014.56 1015.27 1015.80 1016.23 1016.53 1016.65 1016.89 1017.12 1017.44 1017.75 1017.99 1018.31 1018.56 1018.91 1019.27 1019.56 1019.85 1020.17 1020.32 1020.56 1020.78 1020.96 1021.19 1021.33 1021.64
1009.06 1009.16 1009.15 1009.34 1009.14 1009.43 1010.44 1011.14 1011.21 1011.58 1012.05 1012.60 1012.63 1012.84 1013.06 1013.63 1013.96 1014.22 1014.52 1014.91 1015.58 1016.27 1016.65 1016.71 1016.79 1017.03 1017.25 1017.44 1017.73 1017.93 1018.23 1018.53 1018.69 1019.22 1019.39 1019.68 1020.17 1020.41 1020.80 1020.44 1020.90 1021.34 1021.54
1009.25 1009.19 1009.02 1009.19 1009.04 1009.45 1009.88 1010.41 1011.08 1011.73 1011.49 1011.89 1012.55 1013.08 1013.33 1013.69 1013.88 1014.15 1014.34 1014.78 1015.24 1016.03 1016.77 1016.70 1016.53 1016.70 1016.97 1017.21 1017.30 1017.45 1018.01 1018.25 1018.66 1019.17 1019.62 1019.97 1020.30 1020.63 1021.00 1020.98 1021.18 1021.53 1021.62
1008.88 1008.95 1009.00 1009.12 1008.76 1009.09 1009.49 1009.98 1010.52 1011.17 1011.70 1012.32 1012.52 1013.54 1014.32 1014.88 1015.61 1015.69 1016.15 1016.39 1016.74 1017.14 1017.55 1017.54 1016.94 1016.83 1016.89 1017.23 1017.45 1017.24 1017.73 1018.18 1018.71 1019.38 1019.92 1020.30 1020.55 1020.94 1021.13 1021.20 1021.33 1021.57 1021.81
1008.93 1009.29 1009.29 1008.86 1008.49 1008.44 1008.81 1009.49 1009.99 1010.67 1011.47 1012.19 1013.26 1014.20 1015.06 1015.71 1016.69 1016.73 1017.17 1017.40 1017.93 1018.36 1018.85 1018.60 1018.18 1018.11 1017.62 1017.67 1018.00 1018.22 1018.49 1018.92 1019.44 1019.93 1020.36 1020.58 1021.04 1021.32 1021.42 1021.54 1021.60 1021.68 1021.92
1008.84 1009.10 1008.02 1008.43 1008.42 1008.41 1008.42 1009.21 1010.02 1010.41 1011.18 1012.35 1013.71 1015.33 1015.61 1016.54 1017.10 1017.90 1017.63 1018.06 1018.42 1019.07 1019.67 1019.71 1019.66 1019.43 1019.64 1018.83 1018.94 1019.42 1019.59 1019.85 1020.25 1020.64 1020.99 1021.24 1021.66 1021.98 1022.04 1022.03 1022.03 1022.04 1022.09
1008.87 1008.44 1008.36 1008.23 1008.12 1008.46 1008.34 1008.52 1009.50 1009.86 1010.60 1011.68 1012.45 1014.04 1015.96 1017.77 1018.08 1018.99 1018.78 1018.31 1019.35 1019.78 1019.87 1020.65 1020.49 1020.67 1020.92 1020.74 1020.79 1020.58 1020.62 1020.82 1021.06 1021.25 1021.87 1022.01 1022.37 1022.48 1022.47 1022.45 1022.36 1022.38 1022.26
1009.14 1008.92 1008.76 1008.64 1008.63 1008.16 1007.90 1008.09 1008.99 1009.29 1010.04 1011.03 1011.08 1012.08 1014.20 1015.29 1018.07 1019.93 1020.09 1019.68 1019.95 1020.61 1021.44 1021.06 1021.30 1021.80 1021.26 1022.51 1021.96 1022.93 1022.35 1021.99 1022.23 1022.46 1022.47 1023.02 1022.64 1023.09 1022.50 1022.84 1022.67 1022.65 1022.43
1009.52 1009.95 1009.94 1009.45 1008.98 1008.22 1007.76 1007.94 1008.44 1009.10 1009.64 1009.89 1010.81 1011.07 1012.07 1013.78 1016.12 1019.32 1020.53 1021.26 1021.36 1021.07 1022.06 1021.93 1021.96 1022.19 1022.55 1023.21 1022.82 1023.45 1023.51 1023.24 1023.23 1023.22 1023.14 1023.69 1023.43 1023.33 1023.04 1022.86 1022.88 1022.59 1022.42
1010.38 1010.42 1009.89 1009.79 1008.97 1008.95 1007.83 1007.72 1008.30 1008.78 1009.10 1009.46 1010.27 1011.20 1012.43 1013.52 1014.62 1016.36 1019.31 1021.63 1021.95 1022.30 1022.34 1022.49 1022.65 1022.91 1022.92 1023.46 1023.45 1024.67 1023.87 1023.50 1024.07 1024.23 1023.65 1023.90 1023.78 1023.83 1023.35 1022.97 1022.77 1022.35 1022.19
1010.40 1010.54 1010.71 1010.38 1010.21 1009.61 1009.25 1008.97 1008.94 1009.12 1009.39 1009.61 1010.28 1011.01 1011.81 1013.04 1014.19 1014.81 1017.85 1020.26 1021.48 1023.36 1023.13 1023.81 1023.44 1023.17 1023.29 1023.84 1024.45 1025.05 1024.79 1025.23 1024.60 1024.53 1024.56 1024.03 1023.88 1023.94 1023.55 1023.03 1022.68 1022.17 1021.94
1011.53 1011.23 1011.29 1010.88 1010.67 1010.35 1010.22 1010.34 1010.45 1010.52 1010.61 1010.90 1011.24 1012.01 1012.21 1012.93 1013.32 1014.11 1015.61 1018.74 1020.78 1022.93 1023.72 1024.34 1024.25 1024.06 1024.49 1024.08 1024.75 1025.26 1025.61 1025.91 1024.85 1024.78 1024.90 1024.42 1024.22 1024.09 1023.75 1023.01 1022.65 1022.23 1022.09
1012.49 1012.07 1012.03 1011.89 1011.22 1011.35 1011.39 1011.78 1011.70 1012.00 1012.07 1012.07 1012.98 1012.94 1013.63 1013.73 1013.84 1013.74 1014.85 1016.54 1019.96 1021.51 1022.95 1024.15 1024.66 1024.49 1024.67 1024.40 1024.98 1024.87 1025.40 1025.39 1025.38 1025.02 1025.08 1024.46 1024.05 1023.66 1023.32 1022.96 1022.79 1022.33 1021.97
1012.94 1012.92 1012.91 1012.42 1011.76 1012.28 1012.90 1012.60 1012.76 1013.22 1013.89 1014.19 1013.87 1014.35 1014.28 1015.15 1015.16 1014.78 1015.08 1015.99 1016.97 1019.70 1022.06 1023.82 1024.33 1024.79 1024.54 1024.78 1024.73 1024.61 1025.00 1025.23 1025.39 1025.21 1024.74 1024.34 1023.83 1023.42 1023.01 1022.60 1022.65 1022.24 1021.93
1013.67 1013.64 1013.83 1013.00 1013.28 1013.54 1014.14 1014.00 1014.06 1014.35 1015.30 1016.21 1015.44 1015.81 1016.01 1016.65 1017.04 1015.79 1016.33 1016.75 1016.98 1017.71 1020.98 1022.84 1023.82 1024.60 1024.61 1024.26 1024.45 1024.66 1024.99 1024.86 1024.85 1024.91 1024.30 1023.91 1023.59 1023.14 1022.97 1022.49 1022.24 1022.00 1021.69
1014.64 1014.54 1014.37 1014.25 1014.48 1014.52 1014.67 1014.72 1015.10 1015.48 1016.47 1017.01 1016.59 1017.02 1017.71 1017.58 1017.66 1017.71 1017.50 1018.29 1018.61 1018.58 1020.47 1022.87 1023.57 1024.09 1024.14 1024.18 1024.31 1024.63 1024.68 1024.76 1024.37 1024.32 1023.99 1023.67 1023.29 1022.85 1022.68 1022.40 1022.09 1021.65 1021.13
1015.22 1015.11 1014.98 1015.08 1015.10 1015.33 1015.76 1015.87 1016.51 1017.48 1017.03 1017.29 1018.19 1018.99 1018.37 1017.91 1018.16 1019.41 1019.33 1019.41 1019.98 1020.34 1020.50 1022.10 1023.41 1024.00 1024.36 1024.63 1024.60 1024.60 1024.38 1024.22 1023.90 1023.85 1023.48 1023.20 1022.92 1022.68 1022.24 1021.79 1021.58 1021.24 1020.81
1016.17 1016.20 1016.29 1016.41 1016.72 1016.92 1017.36 1017.59 1018.00 1017.74 1018.07 1018.58 1018.76 1020.54 1018.79 1019.87 1019.51 1020.16 1021.29 1020.87 1020.97 1021.30 1021.41 1021.55 1022.95 1023.99 1024.10 1024.63 1024.95 1024.41 1023.87 1024.24 1023.60 1023.39 1023.10 1022.82 1022.53 1022.40 1021.90 1021.43 1020.98 1020.39 1019.92
1017.25 1017.42 1017.74 1017.91 1018.10 1018.42 1018.61 1018.88 1018.55 1019.58 1020.12 1020.22 1020.36 1019.63 1020.41 1020.98 1020.03 1021.24 1022.37 1022.32 1022.22 1022.06 1021.98 1022.19 1023.15 1024.07 1024.45 1024.61 1024.46 1024.23 1024.22 1023.98 1023.54 1023.22 1022.66 1022.47 1022.01 1021.49 1021.14 1020.93 1020.32 1019.82 1019.20
1018.31 1018.68 1018.80 1019.00 1019.19 1019.15 1019.75 1019.82 1019.68 1020.75 1021.06 1021.56 1020.61 1020.30 1022.30 1021.89 1021.95 1021.97 1022.06 1022.78 1022.92 1022.43 1022.89 1023.03 1023.62 1024.45 1024.51 1024.63 1024.72 1024.84 1024.41 1023.78 1023.33 1022.66 1022.27 1022.08 1021.44 1021.43 1020.98 1020.40 1020.32 1019.60 1018.18
1019.58 1019.88 1020.19 1020.43 1020.55 1020.66 1020.86 1020.75 1020.85 1021.26 1021.83 1021.93 1021.83 1022.10 1022.17 1022.53 1023.05 1023.17 1023.58 1023.79 1023.77 1023.22 1023.84 1024.18 1024.40 1024.63 1024.62 1025.08 1025.08 1024.65 1024.22 1023.79 1023.13 1022.36 1022.38 1021.64 1021.49 1021.06 1020.71 1020.32 1019.59 1018.31 1017.81
1020.68 1020.97 1021.13 1021.29 1021.24 1021.54 1021.82 1022.00 1022.05 1022.41 1022.38 1022.37 1022.43 1022.64 1022.81 1023.48 1023.93 1023.89 1024.09 1024.06 1023.80 1024.03 1024.72 1025.04 1024.89 1024.79 1025.10 1025.04 1024.81 1024.37 1024.53 1024.23 1023.83 1023.08 1022.89 1020.90 1020.94 1020.50 1020.01 1019.17 1018.07 1017.54 1016.88
1021.40 1021.83 1022.20 1022.36 1022.03 1022.31 1022.49 1022.62 1022.69 1022.90 1023.11 1023.16 1023.55 1023.32 1023.74 1024.10 1024.26 1024.31 1024.27 1024.28 1024.73 1024.93 1025.15 1025.18 1025.13 1025.06 1025.05 1024.45 1024.25 1024.41 1024.32 1024.17 1023.47 1023.22 1022.76 1020.81 1019.89 1019.16 1018.62 1018.31 1017.26 1016.53 1015.89
1022.24 1022.36 1022.55 1022.55 1022.76 1023.17 1023.32 1023.29 1023.31 1023.46 1023.32 1023.61 1023.80 1024.50 1024.41 1024.50 1024.10 1024.09 1024.38 1024.64 1024.84 1024.63 1024.62 1024.69 1024.78 1024.59 1024.30 1023.97 1024.06 1024.37 1024.37 1024.17 1023.36 1022.35 1021.66 1021.16 1019.78 1018.83 1018.07 1016.65 1015.89 1015.49 1015.18
1022.95 1023.11 1023.07 1023.11 1023.21 1023.19 1023.25 1023.37 1023.30 1023.43 1023.89 1024.42 1024.81 1024.98 1024.98 1024.76 1024.46 1024.32 1024.55 1024.61 1024.56 1024.39 1024.27 1024.50 1024.70 1024.41 1024.22 1024.30 1024.26 1024.30 1024.22 1024.05 1023.59 1022.56 1020.87 1020.92 1020.03 1019.62 1017.23 1015.59 1015.58 1015.56 1014.90
Wind_Speed
4 2 2 3 3 5 6 4 3 4 7 9 7 9 10 8 8 4 5 12 10 7 11 13 14 14 14 14 13 13 12 12 11 11 10 9 9 8 8 9 8 8 8
3 4 2 5 6 6 5 8 12 9 8 8 9 8 9 8 9 8 5 8 13 9 8 12 15 15 15 15 15 14 13 13 13 12 12 11 11 10 10 10 10 9 2
5 4 4 3 6 8 10 8 8 8 8 5 8 9 7 7 7 7 5 4 9 6 2 7 9 14 15 16 16 16 15 15 15 16 12 12 14 12 11 3 9 4 7
5 5 4 5 6 7 9 9 8 8 7 9 6 5 6 4 7 9 7 5 4 5 6 7 8 7 13 15 16 17 13 16 19 17 17 17 16 15 12 11 11 8 7
5 6 5 6 5 6 8 8 8 8 6 6 8 5 5 6 8 9 12 11 11 9 6 14 17 7 6 8 6 10 17 21 20 18 16 15 14 12 11 11 9 8 8
6 8 6 7 6 5 5 7 10 9 8 6 5 7 7 6 6 6 7 8 9 11 9 10 9 11 12 16 17 20 21 20 19 16 14 13 12 10 9 8 7 7 7
5 9 4 6 7 6 8 8 8 9 6 9 7 6 8 8 9 5 6 5 9 9 10 9 7 7 8 20 20 17 18 17 16 15 14 13 11 8 7 6 5 6 6
6 5 6 6 7 7 10 10 11 6 6 11 4 5 4 2 7 7 5 8 9 6 9 9 9 11 9 8 15 19 17 15 15 15 12 12 10 8 7 7 6 6 7
4 6 7 9 9 8 7 9 11 12 7 8 12 6 5 4 5 4 9 7 9 7 6 8 9 9 12 8 13 13 16 15 14 12 13 10 10 7 8 7 7 7 8
6 5 6 9 9 9 9 8 9 10 9 8 6 5 4 7 5 4 4 6 6 7 6 6 6 10 9 7 15 15 14 14 13 13 11 9 9 8 6 6 7 9 11
5 7 7 8 7 7 9 10 10 11 8 9 9 6 3 3 6 5 5 4 4 4 6 4 5 6 8 8 7 7 13 13 8 6 9 7 7 8 8 8 9 11 13
5 9 8 6 6 6 7 6 4 2 2 2 4 4 5 5 4 5 5 5 6 3 4 4 5 5 6 6 9 10 10 7 6 6 5 6 7 8 9 10 12 13 14
4 7 7 7 6 7 8 7 7 7 6 5 3 3 3 3 1 4 7 5 5 3 3 4 3 4 4 5 5 5 3 6 6 4 7 7 9 11 12 13 14 15 16
4 6 6 7 9 10 9 8 7 7 7 7 9 9 6 5 4 3 6 11 5 3 3 3 1 3 2 4 2 3 1 5 7 6 9 9 10 12 14 16 17 17 17
5 7 7 8 11 12 11 12 9 11 9 9 11 9 8 6 5 6 7 3 5 6 3 4 3 3 4 5 3 1 2 3 7 8 10 13 14 15 17 17 18 18 19
7 7 8 11 12 13 11 12 12 12 11 9 10 11 10 7 7 8 7 7 5 4 6 2 2 3 5 3 4 1 3 6 6 9 12 13 15 17 18 18 18 20 21
8 9 10 11 12 13 13 15 15 16 13 12 14 14 13 12 8 8 9 8 7 5 7 4 3 7 5 3 1 2 3 4 4 10 13 15 18 19 19 19 21 22 22
11 12 12 13 14 14 13 14 17 11 15 14 13 11 14 10 15 10 8 10 8 7 4 9 6 3 1 1 2 4 4 4 5 10 14 18 19 19 20 21 22 24 24
14 14 14 15 15 15 15 15 14 16 16 14 14 7 15 11 14 11 9 8 7 6 6 6 5 2 2 2 3 4 4 5 6 12 15 17 17 18 22 23 24 25 25
14 15 14 14 14 13 14 14 16 14 13 12 12 16 14 12 13 10 7 8 6 6 7 6 5 3 1 1 3 4 4 4 7 8 11 13 16 18 22 25 26 26 26
14 13 14 14 13 13 10 12 15 12 12 10 13 16 12 14 21 15 7 8 5 6 5 4 5 1 2 3 4 3 6 7 8 8 5 6 8 9 11 17 20 25 25
13 13 13 12 13 10 20 19 13 10 10 10 11 10 11 13 15 18 16 16 11 7 6 2 2 2 2 2 3 5 5 7 5 1 6 11 9 10 11 9 20 24 28
12 12 11 11 12 12 18 17 16 9 9 9 10 10 10 8 8 8 10 11 12 11 7 3 2 2 4 4 5 7 8 8 9 9 11 11 7 11 11 11 23 27 29
10 9 10 10 11 10 15 15 16 10 9 10 10 10 9 8 8 6 6 6 5 3 3 2 3 4 6 6 6 7 9 11 10 9 10 10 5 9 10 10 28 28 27
8 8 7 9 10 9 11 10 9 7 9 9 9 8 6 6 10 11 6 5 5 4 4 6 9 12 15 17 13 7 6 7 7 5 7 9 6 11 11 10 10 18 20
8 7 9 8 8 8 11 10 8 6 6 4 5 5 7 6 7 8 5 5 5 6 6 5 6 9 10 9 13 7 5 6 6 7 3 3 5 6 8 3 2 8 10
Wind_Direction
290 259 191 163 121 177 139 89 21 243 191 201 185 182 206 201 215 200 151 168 187 212 209 206 205 201 203 202 199 196 197 194 196 195 202 208 217 219 224 228 234 242 258
279 307 272 189 163 184 176 184 173 186 235 208 188 192 207 202 207 203 194 180 190 206 228 228 220 207 206 204 203 203 203 205 203 201 206 212 214 220 230 236 242 247 36
261 248 252 260 183 180 179 188 182 187 173 231 228 188 193 213 220 220 224 184 186 120 243 253 253 232 222 207 203 206 206 212 207 220 223 229 231 224 69 184 247 55 62
264 281 259 240 217 192 188 181 190 203 202 189 190 215 194 214 226 212 208 219 213 166 84 340 243 243 237 225 222 201 176 135 121 113 106 97 93 91 83 70 72 64 64
278 278 270 255 230 202 193 185 187 198 188 183 158 97 75 59 44 55 60 59 54 48 38 32 41 29 166 169 179 227 173 128 114 108 104 97 94 93 92 89 81 63 46
253 244 242 255 247 207 177 186 187 186 197 173 90 86 77 63 59 70 72 69 58 52 36 35 35 23 70 91 90 93 98 101 104 103 98 92 82 78 73 68 59 47 25
228 253 244 261 260 228 201 179 194 188 191 126 101 68 57 59 63 43 75 83 76 70 53 38 40 42 34 69 90 87 93 95 96 94 91 87 79 67 55 44 34 22 8
265 280 271 242 251 244 217 189 194 183 187 175 133 139 137 123 56 33 43 83 58 65 86 56 61 54 45 49 60 76 78 83 86 85 80 72 55 46 43 24 12 356 343
318 314 307 305 260 240 234 215 203 208 195 188 159 144 160 159 115 31 31 42 73 68 49 71 60 63 71 49 61 43 63 70 68 69 61 43 45 27 31 4 352 337 326
359 349 317 302 291 292 222 225 215 208 196 190 181 187 78 133 147 145 53 44 49 67 50 70 76 56 57 65 62 59 57 58 59 54 51 26 15 1 1 346 326 325 317
10 357 356 327 323 309 284 224 193 203 193 188 195 177 109 98 115 143 141 149 67 30 70 37 75 90 74 55 54 44 56 55 54 49 37 15 360 336 330 322 316 316 314
3 12 352 5 360 13 9 13 36 55 142 192 160 162 161 168 172 144 124 137 116 59 50 35 56 70 72 87 63 31 37 31 37 28 1 354 332 316 316 316 314 315 310
6 13 7 28 33 43 41 40 47 52 52 68 41 82 65 66 131 107 116 127 134 130 86 26 57 52 94 82 70 72 37 355 11 348 328 331 323 316 315 318 314 312 308
39 35 44 51 60 56 54 53 61 51 85 61 62 73 72 50 9 71 134 144 120 126 135 146 18 100 61 92 143 84 302 346 330 325 315 323 320 319 318 317 313 309 306
66 60 55 57 57 57 64 61 64 58 59 63 68 59 65 48 30 54 72 91 117 140 133 171 145 179 182 169 103 40 268 323 305 306 319 325 324 322 317 312 307 306 302
62 66 69 70 68 68 65 74 66 64 66 43 62 68 61 60 47 62 61 55 43 103 119 124 105 150 221 171 117 320 326 297 308 311 317 319 318 316 308 305 301 299 297
68 71 73 78 79 79 69 76 69 74 75 65 63 59 56 64 55 53 55 47 45 47 105 87 118 173 169 162 137 353 319 318 310 315 315 313 312 310 303 298 298 296 296
59 63 65 67 69 66 69 75 71 72 81 57 70 56 51 51 54 41 56 65 50 23 111 125 128 131 193 75 350 322 330 304 310 306 307 306 304 298 294 298 298 296 295
61 61 65 66 68 72 73 73 78 69 60 65 66 56 70 63 61 48 34 51 56 62 58 105 117 108 84 33 330 317 329 307 314 306 304 299 297 295 301 301 298 293 293
68 64 62 67 67 73 74 75 73 70 76 72 78 69 59 57 73 71 55 52 49 61 63 74 81 83 57 73 313 335 319 317 313 296 291 288 288 293 299 299 295 294 293
66 67 69 67 69 67 65 74 75 77 75 75 69 70 72 69 70 69 62 45 49 63 59 65 69 172 44 354 349 315 306 315 305 283 293 289 300 297 288 291 282 284 290
66 69 69 71 74 76 81 80 79 77 79 72 77 75 67 55 60 65 64 60 54 53 65 62 73 24 18 322 304 313 314 324 333 306 323 293 295 287 280 267 271 287 287
76 68 69 73 74 75 80 84 87 84 76 70 66 71 72 63 53 55 54 53 52 51 47 359 338 353 310 324 312 312 301 294 280 299 302 289 291 280 271 267 280 287 287
70 75 71 71 74 73 76 77 78 76 77 74 72 69 72 70 61 54 42 45 44 49 29 338 300 286 274 287 303 296 297 292 288 276 275 276 280 286 290 274 279 282 277
75 72 72 77 80 79 79 85 93 92 82 73 66 51 53 60 37 30 25 8 355 354 343 318 308 302 302 303 299 301 281 288 293 280 276 277 280 296 278 267 258 262 270
80 78 73 60 74 73 66 63 68 74 84 98 99 86 55 32 27 16 358 355 332 332 333 319 300 308 307 296 289 272 273 265 280 301 219 301 308 318 313 250 320 294 280